EW0195 Weather Reports


Display with metric or nautical units.
time (UTC)temp
F
wind
direction
speed
MPH
gust
MPH
rain 1hr
in
rain 24hr
in
rain mn
in
humidity
%
barometer
mb
20260905003001 75 298 0.0 0.0 0.00 0.00 0.00 88 1011.5
20260905001502 75 298 0.0 0.0 0.00 0.00 0.00 87 1011.4
20260905000003 76 298 0.0 0.0 0.00 0.00 0.00 86 1011.3
20260904234500 77 298 0.0 0.0 0.00 0.00 0.00 84 1011.4
20260904231500 79 298 0.0 0.0 0.00 0.00 0.00 81 1011.3
20260904230005 80 298 0.0 1.0 0.00 0.00 0.00 79 1011.2
20260904224500 81 295 0.0 4.0 0.00 0.00 0.00 78 1011.6
20260904221500 82 277 1.0 3.0 0.00 0.00 0.00 75 1011.6
20260904214500 83 301 1.0 4.0 0.00 0.00 0.00 73 1011.8
20260904213001 83 263 0.0 2.0 0.00 0.00 0.00 72 1011.9
20260904211500 83 289 0.0 2.0 0.00 0.00 0.00 72 1012.1
20260904210004 83 13 0.0 2.0 0.00 0.00 0.00 70 1012.4
20260904204501 83 28 1.0 3.0 0.00 0.00 0.00 69 1012.2
20260904203002 85 1 1.0 5.0 0.00 0.00 0.00 66 1012.1
20260904200005 86 53 2.0 7.0 0.00 0.00 0.00 66 1012.0
20260904194501 85 21 2.0 9.0 0.00 0.00 0.00 66 1012.2
20260904191501 84 329 2.0 7.0 0.00 0.00 0.00 70 1012.8
20260904190005 84 26 4.0 10.0 0.00 0.00 0.00 68 1013.0
20260904184501 84 40 2.0 9.0 0.00 0.00 0.00 71 1013.1
20260904183001 83 81 2.0 7.0 0.00 0.00 0.00 71 1013.2
20260904181501 83 36 3.0 7.0 0.00 0.00 0.00 69 1013.3
20260904180005 83 49 3.0 15.0 0.00 0.00 0.00 70 1013.3
20260904174503 83 2 3.0 9.0 0.00 0.00 0.00 70 1013.3
20260904173002 83 37 4.0 12.0 0.00 0.00 0.00 71 1013.5
20260904171502 83 8 2.0 7.0 0.00 0.00 0.00 73 1013.5
20260904170005 83 348 2.0 11.0 0.00 0.00 0.00 73 1013.4
20260904164501 82 63 4.0 9.0 0.00 0.00 0.00 73 1013.5
20260904163003 82 65 4.0 10.0 0.00 0.00 0.00 73 1013.6
20260904161500 82 60 4.0 11.0 0.00 0.00 0.00 73 1013.6
20260904160006 82 63 3.0 10.0 0.00 0.00 0.00 73 1013.7
20260904154501 81 2 5.0 12.0 0.00 0.00 0.00 75 1013.8
20260904151501 80 237 3.0 9.0 0.00 0.00 0.00 78 1013.7
20260904144501 79 38 6.0 13.0 0.00 0.00 0.00 76 1013.7
20260904143001 79 335 3.0 7.0 0.00 0.00 0.00 79 1013.7
20260904141501 78 80 5.0 11.0 0.00 0.00 0.00 78 1013.6
20260904140003 77 103 5.0 13.0 0.00 0.00 0.00 80 1013.4
20260904134503 77 65 5.0 10.0 0.00 0.00 0.00 79 1013.3
20260904133001 76 341 5.0 14.0 0.00 0.00 0.00 81 1013.4
20260904131501 76 347 2.0 8.0 0.00 0.00 0.00 82 1013.3
20260904130004 75 20 4.0 9.0 0.00 0.00 0.00 83 1013.5
20260904123001 74 48 4.0 11.0 0.00 0.00 0.00 86 1013.8
20260904121500 73 59 4.0 10.0 0.00 0.00 0.00 87 1013.6
20260904114501 72 327 2.0 6.0 0.00 0.00 0.00 89 1013.4
20260904111500 70 297 0.0 3.0 0.00 0.00 0.00 91 1013.3
20260904104500 70 343 0.0 0.0 0.00 0.00 0.00 90 1012.7
20260904103000 70 334 0.0 0.0 0.00 0.00 0.00 90 1012.6
20260904101500 71 301 0.0 0.0 0.00 0.00 0.00 90 1012.5
20260904100004 71 304 0.0 1.0 0.00 0.00 0.00 90 1012.5
20260904094501 71 289 0.0 0.0 0.00 0.00 0.00 90 1012.4
20260904093000 72 288 0.0 0.0 0.00 0.00 0.00 90 1012.6
20260904083000 73 300 1.0 3.0 0.00 0.00 0.00 88 1013.0
20260904081459 73 300 1.0 4.0 0.00 0.00 0.00 88 1013.0
20260904080004 73 292 1.0 4.0 0.00 0.00 0.00 88 1013.1
20260904074500 73 297 0.0 4.0 0.00 0.00 0.00 88 1013.3
20260904073001 73 292 0.0 3.0 0.00 0.00 0.00 89 1013.1
20260904070005 74 333 2.0 4.0 0.00 0.00 0.00 93 1012.5
20260904064501 74 289 0.0 1.0 0.00 0.00 0.00 94 1012.1
20260904061500 74 281 0.0 2.0 0.00 0.00 0.00 94 1011.7
20260904060005 74 280 0.0 1.0 0.00 0.00 0.00 94 1011.9
20260904054500 74 280 0.0 0.0 0.00 0.00 0.00 93 1012.2
20260904053000 75 280 0.0 0.0 0.00 0.00 0.00 93 1012.6
20260904051501 75 280 1.0 2.0 0.00 0.00 0.00 93 1012.4
20260904050004 75 302 0.0 2.0 0.00 0.00 0.00 94 1012.3
20260904044501 75 302 0.0 1.0 0.00 0.00 0.00 94 1012.3
20260904043000 75 302 0.0 1.0 0.00 0.00 0.00 93 1012.2
20260904041501 76 302 0.0 1.0 0.00 0.00 0.00 93 1012.7
20260904040004 76 302 0.0 0.0 0.00 0.00 0.00 92 1013.0
20260904034500 76 302 0.0 2.0 0.00 0.00 0.00 90 1013.5
20260904033000 77 72 2.0 7.0 0.00 0.00 0.00 88 1013.9
20260904031500 77 295 0.0 0.0 0.00 0.00 0.00 86 1013.8
20260904030003 77 296 0.0 0.0 0.00 0.00 0.00 87 1013.8
20260904024501 77 296 0.0 2.0 0.00 0.00 0.00 87 1013.7
20260904022959 77 295 0.0 3.0 0.00 0.00 0.00 87 1013.7
20260904021500 77 295 1.0 4.0 0.00 0.00 0.00 87 1013.8
20260904020003 77 287 0.0 0.0 0.00 0.00 0.00 88 1013.5
20260904014500 77 287 0.0 0.0 0.00 0.00 0.00 89 1013.5
20260904013000 76 287 0.0 1.0 0.00 0.00 0.00 89 1013.7
20260904010005 78 287 0.0 1.0 0.00 0.00 0.00 87 1014.2
20260904004502 78 287 0.0 3.0 0.00 0.00 0.00 86 1014.2